ETX6458 EBCI-EGNX

Flight info

Callsign ETX6458
Flight time 0h 44m
Altitude 40000
Route CIV UY50 LUMEN L610 LAM/N0477F240 N57 WELIN
Aircraft C750/M-SBDE3FGHRWXY/S

Departure

Time 2026-05-07 10:31
Airport Brussels South Charleroi Airport (EBCI)

Arrival

Time 2026-05-07 11:15
Airport East Midlands Airport (EGNX)
Time Latitude Longitude Altitude Speed Heading
2026-05-07 10:12 50.45823 4.45315 593 ft 0 kts 65°
2026-05-07 10:26 50.45828 4.45331 593 ft 4 kts 60°
2026-05-07 10:26 50.45850 4.45339 592 ft 5 kts 353°
2026-05-07 10:26 50.45883 4.45354 589 ft 6 kts 59°
2026-05-07 10:27 50.45906 4.45423 589 ft 8 kts 65°
2026-05-07 10:27 50.45927 4.45497 590 ft 8 kts 65°
2026-05-07 10:27 50.45952 4.45583 589 ft 9 kts 65°
2026-05-07 10:27 50.45982 4.45687 588 ft 11 kts 65°
2026-05-07 10:28 50.46012 4.45791 590 ft 9 kts 65°
2026-05-07 10:28 50.46032 4.45864 591 ft 5 kts 69°
2026-05-07 10:28 50.46045 4.45930 592 ft 9 kts 78°
2026-05-07 10:28 50.46061 4.46063 592 ft 14 kts 74°
2026-05-07 10:29 50.46098 4.46200 592 ft 13 kts 65°
2026-05-07 10:29 50.46151 4.46249 590 ft 0 kts 338°
2026-05-07 10:29 50.46155 4.46247 590 ft 1 kts 338°
2026-05-07 10:30 50.46205 4.46211 588 ft 9 kts 335°
2026-05-07 10:30 50.46240 4.46163 587 ft 2 kts 253°
2026-05-07 10:30 50.46199 4.46020 588 ft 64 kts 245°
2026-05-07 10:30 50.45819 4.44721 749 ft 172 kts 246°
2026-05-07 10:31 50.45261 4.42808 1732 ft 207 kts 247°
2026-05-07 10:31 50.44937 4.40439 2748 ft 237 kts 258°
2026-05-07 10:31 50.44366 4.37875 3899 ft 261 kts 248°
2026-05-07 10:31 50.43661 4.35289 5858 ft 257 kts 246°
2026-05-07 10:32 50.42949 4.32692 7621 ft 263 kts 246°
2026-05-07 10:32 50.42219 4.30014 9277 ft 272 kts 246°
2026-05-07 10:32 50.41456 4.27243 10737 ft 285 kts 246°
2026-05-07 10:32 50.40666 4.24232 11681 ft 314 kts 253°
2026-05-07 10:33 50.40588 4.20668 12402 ft 347 kts 281°
2026-05-07 10:33 50.41581 4.17192 13865 ft 351 kts 300°
2026-05-07 10:33 50.42924 4.13976 15162 ft 355 kts 304°
2026-05-07 10:33 50.44404 4.10795 15551 ft 366 kts 306°
2026-05-07 10:34 50.45963 4.07612 16190 ft 369 kts 307°
2026-05-07 10:34 50.47547 4.04420 16816 ft 373 kts 307°
2026-05-07 10:34 50.49151 4.01200 17467 ft 376 kts 307°
2026-05-07 10:34 50.50774 3.97948 18130 ft 380 kts 307°
2026-05-07 10:35 50.51879 3.95735 18556 ft 383 kts 307°
2026-05-07 10:35 50.53507 3.92476 19144 ft 386 kts 307°
2026-05-07 10:35 50.55196 3.89181 19734 ft 390 kts 310°
2026-05-07 10:35 50.57197 3.86272 20326 ft 394 kts 321°
2026-05-07 10:36 50.59471 3.83829 20953 ft 398 kts 327°
2026-05-07 10:36 50.61826 3.81503 21543 ft 401 kts 327°
2026-05-07 10:36 50.64252 3.79276 22147 ft 405 kts 330°
2026-05-07 10:36 50.66842 3.77469 22704 ft 410 kts 338°
2026-05-07 10:37 50.69566 3.76059 23308 ft 414 kts 342°
2026-05-07 10:37 50.72335 3.74757 23826 ft 417 kts 341°
2026-05-07 10:37 50.75082 3.73224 24309 ft 420 kts 338°
2026-05-07 10:37 50.77794 3.71493 24797 ft 422 kts 336°
2026-05-07 10:38 50.80551 3.69841 25278 ft 426 kts 339°
2026-05-07 10:38 50.83356 3.68303 25764 ft 429 kts 340°
2026-05-07 10:38 50.86176 3.66709 26243 ft 432 kts 338°
2026-05-07 10:38 50.88998 3.65020 26731 ft 435 kts 338°
2026-05-07 10:39 50.91834 3.63313 27197 ft 437 kts 337°
2026-05-07 10:39 50.94667 3.61509 27675 ft 441 kts 336°
2026-05-07 10:39 50.97466 3.59512 28119 ft 443 kts 330°
2026-05-07 10:39 51.00071 3.56897 28633 ft 444 kts 323°
2026-05-07 10:40 51.02548 3.53939 29121 ft 446 kts 320°
2026-05-07 10:40 51.04937 3.50775 29595 ft 449 kts 317°
2026-05-07 10:40 51.07267 3.47436 30068 ft 452 kts 315°
2026-05-07 10:40 51.09537 3.43945 30470 ft 455 kts 313°
2026-05-07 10:41 51.11735 3.40317 30867 ft 457 kts 311°
2026-05-07 10:41 51.13804 3.36478 31334 ft 456 kts 306°
2026-05-07 10:41 51.15589 3.32320 31943 ft 453 kts 301°
2026-05-07 10:41 51.17222 3.28041 32522 ft 452 kts 299°
2026-05-07 10:42 51.18798 3.23714 33095 ft 451 kts 298°
2026-05-07 10:42 51.20352 3.19373 33681 ft 450 kts 298°
2026-05-07 10:42 51.21893 3.15037 34229 ft 449 kts 298°
2026-05-07 10:42 51.23429 3.10702 34671 ft 449 kts 298°
2026-05-07 10:43 51.24966 3.06354 35101 ft 450 kts 298°
2026-05-07 10:43 51.26503 3.01992 35556 ft 451 kts 298°
2026-05-07 10:43 51.28038 2.97625 36007 ft 451 kts 298°
2026-05-07 10:43 51.29573 2.93249 36453 ft 452 kts 298°
2026-05-07 10:44 51.31111 2.88848 36907 ft 453 kts 298°
2026-05-07 10:44 51.32644 2.84447 37369 ft 454 kts 298°
2026-05-07 10:44 51.34158 2.80020 37833 ft 454 kts 296°
2026-05-07 10:44 51.35367 2.75355 38279 ft 454 kts 288°
2026-05-07 10:45 51.36176 2.70482 38766 ft 453 kts 280°
2026-05-07 10:45 51.36626 2.65494 39154 ft 453 kts 276°
2026-05-07 10:45 51.36999 2.60488 39572 ft 453 kts 276°
2026-05-07 10:45 51.37537 2.55522 39962 ft 454 kts 281°
2026-05-07 10:46 51.38259 2.50570 40069 ft 462 kts 282°
2026-05-07 10:46 51.38947 2.45504 40074 ft 471 kts 280°
2026-05-07 10:46 51.40106 2.34953 40086 ft 490 kts 279°
2026-05-07 10:47 51.41482 2.24089 40088 ft 504 kts 280°
2026-05-07 10:47 51.42802 2.13011 40085 ft 514 kts 280°
2026-05-07 10:48 51.44375 2.01762 40090 ft 520 kts 283°
2026-05-07 10:48 51.46392 1.90602 40091 ft 522 kts 287°
2026-05-07 10:49 51.48813 1.79636 40087 ft 522 kts 289°
2026-05-07 10:49 51.51342 1.68706 40090 ft 522 kts 289°
2026-05-07 10:50 51.53883 1.57800 40089 ft 522 kts 289°
2026-05-07 10:50 51.56436 1.46841 40092 ft 524 kts 289°
2026-05-07 10:51 51.58986 1.35854 40095 ft 525 kts 289°
2026-05-07 10:51 51.61574 1.24858 40097 ft 525 kts 291°
2026-05-07 10:52 51.64434 1.14122 40088 ft 526 kts 292°
2026-05-07 10:52 51.67419 1.03381 40088 ft 526 kts 293°
2026-05-07 10:53 51.70424 0.92636 40105 ft 526 kts 293°
2026-05-07 10:53 51.73431 0.81877 40103 ft 526 kts 293°
2026-05-07 10:54 51.76431 0.71112 40098 ft 526 kts 293°
2026-05-07 10:54 51.79430 0.60332 40094 ft 526 kts 293°
2026-05-07 10:55 51.82426 0.49540 40102 ft 526 kts 293°
2026-05-07 10:55 51.85413 0.38744 40112 ft 526 kts 293°
2026-05-07 10:56 51.88400 0.27932 40108 ft 526 kts 293°
2026-05-07 10:56 51.91384 0.17110 40108 ft 526 kts 293°
2026-05-07 10:57 51.94348 0.06370 39411 ft 512 kts 293°
2026-05-07 10:57 51.95838 0.01073 37500 ft 521 kts 294°
2026-05-07 10:57 51.97329 -0.04196 36595 ft 506 kts 294°
2026-05-07 10:58 51.98774 -0.09291 35182 ft 501 kts 294°
2026-05-07 10:58 52.00227 -0.14449 33382 ft 504 kts 294°
2026-05-07 10:58 52.01695 -0.19643 31302 ft 511 kts 295°
2026-05-07 10:58 52.03215 -0.24985 29754 ft 521 kts 295°
2026-05-07 10:59 52.04713 -0.30252 28125 ft 507 kts 295°
2026-05-07 10:59 52.06183 -0.35375 26580 ft 494 kts 295°
2026-05-07 10:59 52.07669 -0.40324 25094 ft 482 kts 296°
2026-05-07 10:59 52.09193 -0.45105 23710 ft 470 kts 297°
2026-05-07 11:00 52.10729 -0.49706 22216 ft 457 kts 297°
2026-05-07 11:00 52.12207 -0.54209 20862 ft 443 kts 297°
2026-05-07 11:00 52.13626 -0.58563 19618 ft 430 kts 297°
2026-05-07 11:00 52.15005 -0.62799 18538 ft 415 kts 296°
2026-05-07 11:01 52.16347 -0.66855 17478 ft 400 kts 298°
2026-05-07 11:01 52.17918 -0.70509 16401 ft 388 kts 307°
2026-05-07 11:01 52.19627 -0.73843 15378 ft 378 kts 310°
2026-05-07 11:01 52.21335 -0.77033 14392 ft 369 kts 310°
2026-05-07 11:02 52.23012 -0.80143 13375 ft 362 kts 310°
2026-05-07 11:02 52.24658 -0.83198 12322 ft 355 kts 310°
2026-05-07 11:02 52.26337 -0.86115 11301 ft 350 kts 313°
2026-05-07 11:02 52.28039 -0.88910 10320 ft 345 kts 314°
2026-05-07 11:03 52.29729 -0.91650 9547 ft 335 kts 314°
2026-05-07 11:03 52.31330 -0.94227 9274 ft 311 kts 315°
2026-05-07 11:03 52.32841 -0.96608 8996 ft 293 kts 315°
2026-05-07 11:03 52.34281 -0.98877 8704 ft 285 kts 315°
2026-05-07 11:04 52.35694 -1.01104 8490 ft 280 kts 315°
2026-05-07 11:04 52.37087 -1.03311 8277 ft 279 kts 315°
2026-05-07 11:04 52.38480 -1.05529 8065 ft 280 kts 315°
2026-05-07 11:04 52.39873 -1.07756 7870 ft 279 kts 315°
2026-05-07 11:05 52.41254 -1.09976 7666 ft 278 kts 315°
2026-05-07 11:05 52.42627 -1.12191 7446 ft 277 kts 315°
2026-05-07 11:05 52.43992 -1.14407 7243 ft 276 kts 315°
2026-05-07 11:05 52.45349 -1.16623 7042 ft 275 kts 315°
2026-05-07 11:06 52.46698 -1.18833 6829 ft 274 kts 316°
2026-05-07 11:06 52.48038 -1.21055 6545 ft 274 kts 316°
2026-05-07 11:06 52.49368 -1.23288 6232 ft 272 kts 315°
2026-05-07 11:06 52.50684 -1.25502 5910 ft 271 kts 315°
2026-05-07 11:07 52.52001 -1.27709 5591 ft 270 kts 315°
2026-05-07 11:07 52.53324 -1.29896 5278 ft 270 kts 315°
2026-05-07 11:07 52.54657 -1.32077 4964 ft 270 kts 315°
2026-05-07 11:07 52.55989 -1.34254 4652 ft 270 kts 315°
2026-05-07 11:08 52.57321 -1.36426 4336 ft 270 kts 315°
2026-05-07 11:08 52.58636 -1.38560 4024 ft 269 kts 315°
2026-05-07 11:08 52.60058 -1.40561 3690 ft 270 kts 325°
2026-05-07 11:08 52.61655 -1.42160 3384 ft 268 kts 330°
2026-05-07 11:09 52.63279 -1.43685 3068 ft 269 kts 330°
2026-05-07 11:09 52.64890 -1.45187 2958 ft 260 kts 330°
2026-05-07 11:09 52.66461 -1.46646 2962 ft 261 kts 330°
2026-05-07 11:09 52.68046 -1.48119 2963 ft 263 kts 330°
2026-05-07 11:10 52.69656 -1.49607 2966 ft 266 kts 330°
2026-05-07 11:10 52.71272 -1.51096 2969 ft 265 kts 330°
2026-05-07 11:10 52.72893 -1.52585 2974 ft 268 kts 330°
2026-05-07 11:10 52.74543 -1.53999 2990 ft 268 kts 339°
2026-05-07 11:11 52.76362 -1.54491 3005 ft 259 kts 356°
2026-05-07 11:11 52.78083 -1.54590 2944 ft 238 kts 359°
2026-05-07 11:11 52.79668 -1.54585 2812 ft 209 kts
2026-05-07 11:11 52.80957 -1.54222 2778 ft 171 kts 18°
2026-05-07 11:12 52.81922 -1.53317 2717 ft 154 kts 43°
2026-05-07 11:12 52.82622 -1.51941 2631 ft 160 kts 67°
2026-05-07 11:12 52.82837 -1.50118 2377 ft 162 kts 89°
2026-05-07 11:12 52.82863 -1.48341 2179 ft 147 kts 92°
2026-05-07 11:13 52.82849 -1.46651 1824 ft 147 kts 93°
2026-05-07 11:13 52.82870 -1.44994 1557 ft 142 kts 91°
2026-05-07 11:13 52.82892 -1.43389 1365 ft 137 kts 91°
2026-05-07 11:13 52.82931 -1.41822 1166 ft 135 kts 90°
2026-05-07 11:14 52.82966 -1.40275 1000 ft 134 kts 91°
2026-05-07 11:14 52.82997 -1.38732 814 ft 136 kts 92°
2026-05-07 11:14 52.83023 -1.37179 615 ft 133 kts 90°
2026-05-07 11:14 52.83054 -1.35656 430 ft 132 kts 92°
2026-05-07 11:15 52.83079 -1.34188 302 ft 119 kts 92°
2026-05-07 11:15 52.83092 -1.33211 304 ft 49 kts 88°
2026-05-07 11:15 52.83100 -1.32719 297 ft 24 kts 89°
2026-05-07 11:15 52.83045 -1.32650 302 ft 8 kts 216°
2026-05-07 11:16 52.83009 -1.32699 298 ft 6 kts 219°
2026-05-07 11:16 52.82979 -1.32742 298 ft 5 kts 221°
2026-05-07 11:16 52.82952 -1.32781 299 ft 6 kts 222°
2026-05-07 11:16 52.82930 -1.32844 299 ft 7 kts 268°
2026-05-07 11:17 52.82929 -1.32934 299 ft 9 kts 268°
2026-05-07 11:17 52.82927 -1.33065 298 ft 13 kts 268°
2026-05-07 11:17 52.82924 -1.33227 299 ft 14 kts 268°
2026-05-07 11:17 52.82921 -1.33365 302 ft 10 kts 268°
2026-05-07 11:18 52.82919 -1.33484 301 ft 10 kts 268°
2026-05-07 11:18 52.82917 -1.33606 300 ft 10 kts 269°
2026-05-07 11:18 52.82905 -1.33705 300 ft 7 kts 232°
2026-05-07 11:18 52.82852 -1.33719 297 ft 8 kts 173°
2026-05-07 11:19 52.82791 -1.33705 297 ft 10 kts 172°
2026-05-07 11:19 52.82749 -1.33743 298 ft 7 kts 232°
2026-05-07 11:19 52.82734 -1.33830 299 ft 10 kts 259°
2026-05-07 11:19 52.82709 -1.33916 300 ft 7 kts 238°
2026-05-07 11:20 52.82684 -1.33985 299 ft 6 kts 236°
2026-05-07 11:20 52.82676 -1.33979 298 ft 2 kts 124°
2026-05-07 11:20 52.82676 -1.33966 298 ft 0 kts 92°